CDT,Max TemperatureF,Mean TemperatureF,Min TemperatureF,Max Dew PointF,MeanDew PointF,Min DewpointF,Max Humidity, Mean Humidity, Min Humidity, Max Sea Level PressureIn, Mean Sea Level PressureIn, Min Sea Level PressureIn, Max VisibilityMiles, Mean VisibilityMiles, Min VisibilityMiles, Max Wind SpeedMPH, Mean Wind SpeedMPH, Max Gust SpeedMPH,PrecipitationIn, CloudCover, Events, WindDirDegrees
2013-3-1,32,26,21,27,25,19,100,91,80,30.28,30.18,30.03,10,8,4,22,9,29,0.00,6,,174
2013-3-2,30,24,19,27,24,19,100,94,86,30.07,30.01,29.90,10,6,0,20,10,,0.00,3,Fog-Rain,271
2013-3-3,26,22,19,27,23,19,100,96,93,29.89,29.70,29.60,10,5,0,26,12,34,0.09,5,Rain-Snow,84
2013-3-4,23,16,6,19,16,3,100,93,85,30.29,29.95,29.67,10,1,0,37,27,44,24.23,8,Rain-Snow,7
2013-3-5,19,8,-4,9,2,-9,92,82,63,30.41,30.36,30.29,10,10,5,17,9,,0.02,3,Rain-Snow,290
2013-3-6,17,8,-2,12,5,-8,92,84,78,30.32,30.17,30.01,10,9,4,17,8,,0.00,3,Snow,115
2013-3-7,24,16,8,21,13,7,93,87,79,30.09,30.00,29.95,10,8,3,15,10,16,0.00,7,,143
2013-3-8,19,11,3,16,8,0,93,84,73,30.17,30.10,29.98,10,10,3,17,9,,0.05,3,Snow,311
2013-3-9,24,14,5,25,14,1,100,89,79,30.22,30.02,29.89,10,7,2,24,11,28,0.23,3,Snow,300
2013-3-10,19,8,-2,16,7,-6,93,87,78,30.26,30.14,29.87,10,8,4,16,11,,0.00,2,Snow,215
2013-3-11,26,22,17,25,19,14,100,87,74,30.07,29.87,29.76,10,7,0,36,19,45,1.18,4,Rain-Snow,286
2013-3-12,23,13,3,16,7,0,93,81,59,30.30,30.23,30.08,10,9,1,30,18,38,0.16,1,Rain-Snow,280
2013-3-13,37,21,5,32,21,1,100,79,69,30.19,29.97,29.84,10,10,10,24,15,29,0.00,3,,202
2013-3-14,33,27,21,32,24,19,100,93,80,30.12,30.06,29.97,10,8,0,17,9,22,0.13,5,Fog-Snow,311
2013-3-15,21,7,-7,19,4,-11,93,86,78,30.18,30.06,29.97,10,5,0,28,17,31,0.30,6,Rain-Snow,86
2013-3-16,6,-2,-9,0,-5,-15,92,79,72,30.21,30.16,30.02,10,9,2,20,8,21,0.01,5,Rain-Snow,301
2013-3-17,19,12,6,18,9,0,93,85,72,30.01,29.67,29.51,10,6,0,29,17,33,15.29,8,Rain-Snow,125
2013-3-18,10,3,-4,3,-2,-8,92,81,67,29.95,29.89,29.73,10,8,1,29,19,39,1.52,4,Rain-Snow,293
2013-3-19,10,2,-5,5,-2,-11,92,82,72,30.36,30.21,29.93,10,10,5,17,7,21,0.05,4,Snow,293
2013-3-20,15,2,-11,9,0,-17,85,78,67,30.34,30.15,29.95,10,10,5,25,13,31,0.00,0,,143
2013-3-21,15,10,5,9,4,0,85,76,62,29.95,29.91,29.87,10,9,5,30,22,34,0.00,3,,116
2013-3-22,15,12,8,12,10,7,92,85,79,30.07,29.97,29.92,10,6,1,18,12,,0.41,8,Snow,95
2013-3-23,17,12,8,14,10,7,93,88,79,30.23,30.16,30.07,10,6,2,16,7,,0.74,8,Snow,5
2013-3-24,17,9,1,14,10,-2,93,89,85,30.34,30.28,30.22,10,8,1,17,15,,1.75,4,Snow,319
2013-3-25,14,2,-9,9,-3,-15,92,83,77,30.36,30.32,30.23,10,9,0,14,9,,0.00,2,Fog,205
2013-3-26,26,8,-9,19,4,-13,93,83,74,30.22,30.12,30.09,10,7,0,13,4,,0.00,0,Fog-Snow,114
2013-3-27,26,11,-4,21,8,-8,100,84,68,30.15,30.11,30.07,10,8,0,7,2,,0.00,1,Fog,98
2013-3-28,23,12,0,16,6,-2,100,87,74,30.19,30.16,30.14,8,2,0,5,1,,0.00,5,Fog-Rain-Snow,86
2013-3-29,35,18,0,32,16,-4,100,92,85,30.15,30.05,29.98,10,4,0,14,3,21,0.02,3,Fog-Rain-Snow,248
2013-3-30,37,28,19,32,25,18,100,90,75,30.08,30.03,30.01,10,10,5,24,12,32,0.00,1,Rain,288
2013-3-31,26,24,23,23,20,19,93,87,86,30.07,30.06,30.05,10,10,10,15,12,,0.00,1,,306